Location: Kutna Hora
(49.9500°N, 15.2670°E)
Time: 07:39:39
(UTC+02:00)

ISS - Pass Details

Date: 27 May 2019
Orbit: 408 x 418 km, 51.6° (Epoch: 19 June)

Event Time Altitude Azimuth Distance (km) Brightness Sun altitude
Rises 21:43:31 0° 278° (W) 2,353 1.0 -7.0°
Maximum altitude 21:48:57 64° 4° (N) 467 -3.3 -7.6°
Drops below altitude 10° 21:52:18 10° 87° (E) 1,498 -1.3 -7.9°
Enters shadow 21:53:49 - 90° (E) 2,117 -0.6 -8.1°
